When you browse on this site, cookies collect data to enhance your experience and personalize the content and advertising you see.
Visit our Privacy Policy to learn more. By continuing to use the site, you agree to this use of cookies and data.
  • Em Portugal
  • Lista de países
  • Para 7 dias
  • Temperatura da água
  • Mapas de satélite
  • Mapa do tempo
  • Widgets de tempo
  • user-avatar
    Iniciar Sessão

    Previsão horária em Chizhovka

    Hoje, 24 Abril, Quarta-feira

    Tempo Temperatura Precipitação Vento Pressão Humidade
    00:00 +12°C° 0 mm 1 m/s 760 mmHg 48%
    01:00 +11°C° 0 mm 1 m/s 760 mmHg 50%
    02:00 +10°C° 0 mm 0 m/s 760 mmHg 43%
    03:00 +10°C° 0 mm 0 m/s 760 mmHg 45%
    04:00 +9°C° 0 mm 0 m/s 760 mmHg 46%
    05:00 +9°C° 0 mm 0 m/s 760 mmHg 48%
    06:00 +12°C° 0 mm 1 m/s 760 mmHg 45%
    07:00 +14°C° 0 mm 1 m/s 760 mmHg 43%
    08:00 +16°C° 0 mm 1 m/s 760 mmHg 40%
    09:00 +18°C° 0 mm 2 m/s 760 mmHg 36%
    10:00 +19°C° 0 mm 2 m/s 760 mmHg 31%
    11:00 +21°C° 0 mm 2 m/s 760 mmHg 26%
    12:00 +21°C° 0 mm 2 m/s 760 mmHg 26%
    13:00 +22°C° 0 mm 3 m/s 760 mmHg 25%
    14:00 +22°C° 0 mm 3 m/s 759 mmHg 24%
    15:00 +22°C° 0 mm 3 m/s 759 mmHg 26%
    16:00 +21°C° 0 mm 3 m/s 759 mmHg 28%
    17:00 +21°C° 0 mm 2 m/s 759 mmHg 30%
    18:00 +19°C° 0 mm 2 m/s 758 mmHg 34%
    19:00 +17°C° 0 mm 2 m/s 758 mmHg 39%
    20:00 +15°C° 0 mm 2 m/s 758 mmHg 43%
    21:00 +15°C° 0 mm 2 m/s 759 mmHg 45%
    22:00 +14°C° 0 mm 2 m/s 759 mmHg 46%
    23:00 +13°C° 0 mm 1 m/s 759 mmHg 47%

    Amanhã, 25 Abril, Quinta-feira

    Tempo Temperatura Precipitação Vento Pressão Humidade
    00:00 +13°C° 0 mm 1 m/s 759 mmHg 49%
    01:00 +12°C° 0 mm 1 m/s 759 mmHg 50%
    02:00 +12°C° 0 mm 1 m/s 759 mmHg 52%
    03:00 +11°C° 0 mm 1 m/s 759 mmHg 53%
    04:00 +11°C° 0 mm 1 m/s 759 mmHg 55%
    05:00 +11°C° 0 mm 1 m/s 759 mmHg 56%
    06:00 +13°C° 0 mm 1 m/s 759 mmHg 53%
    07:00 +15°C° 0 mm 2 m/s 759 mmHg 49%
    08:00 +17°C° 0 mm 2 m/s 759 mmHg 45%
    09:00 +18°C° 0 mm 3 m/s 759 mmHg 40%
    10:00 +20°C° 0 mm 3 m/s 759 mmHg 35%
    11:00 +21°C° 0 mm 4 m/s 759 mmHg 30%
    12:00 +22°C° 0 mm 4 m/s 758 mmHg 30%
    13:00 +22°C° 0 mm 5 m/s 758 mmHg 29%
    14:00 +22°C° 0 mm 5 m/s 757 mmHg 29%
    15:00 +22°C° 0 mm 5 m/s 757 mmHg 31%
    16:00 +22°C° 0 mm 4 m/s 757 mmHg 33%
    17:00 +21°C° 0 mm 4 m/s 756 mmHg 35%
    18:00 +19°C° 0 mm 4 m/s 756 mmHg 40%
    19:00 +17°C° 0 mm 3 m/s 756 mmHg 46%
    20:00 +14°C° 0 mm 3 m/s 756 mmHg 52%
    21:00 +14°C° 0 mm 3 m/s 756 mmHg 54%
    22:00 +14°C° 0 mm 2 m/s 756 mmHg 57%
    23:00 +13°C° 0 mm 2 m/s 756 mmHg 59%

    Depois de amanhã, 26 Abril, Sexta-feira

    Tempo Temperatura Precipitação Vento Pressão Humidade
    00:00 +13°C° 0 mm 2 m/s 756 mmHg 61%
    01:00 +12°C° 0 mm 2 m/s 756 mmHg 62%
    02:00 +12°C° 0 mm 2 m/s 756 mmHg 64%
    03:00 +12°C° 0 mm 2 m/s 756 mmHg 65%
    04:00 +10°C° 0 mm 2 m/s 756 mmHg 67%
    05:00 +10°C° 0 mm 2 m/s 755 mmHg 69%
    06:00 +12°C° 0 mm 3 m/s 755 mmHg 63%
    07:00 +14°C° 0 mm 3 m/s 755 mmHg 58%
    08:00 +17°C° 0 mm 4 m/s 755 mmHg 52%
    09:00 +17°C° 0 mm 5 m/s 755 mmHg 47%
    10:00 +20°C° 0 mm 5 m/s 755 mmHg 42%
    11:00 +21°C° 0 mm 6 m/s 755 mmHg 37%
    12:00 +22°C° 0 mm 6 m/s 754 mmHg 36%
    13:00 +22°C° 0 mm 6 m/s 754 mmHg 35%
    14:00 +23°C° 0 mm 6 m/s 753 mmHg 34%
    15:00 +22°C° 0 mm 6 m/s 753 mmHg 35%
    16:00 +22°C° 0 mm 5 m/s 752 mmHg 36%
    17:00 +21°C° 0 mm 5 m/s 752 mmHg 37%
    18:00 +19°C° 0 mm 4 m/s 752 mmHg 41%
    19:00 +17°C° 0 mm 4 m/s 752 mmHg 45%
    20:00 +16°C° 0 mm 3 m/s 752 mmHg 49%
    21:00 +14°C° 0 mm 3 m/s 752 mmHg 50%
    22:00 +13°C° 0 mm 3 m/s 752 mmHg 50%
    23:00 +13°C° 0 mm 3 m/s 751 mmHg 51%

    27 Abril, Sábado

    Tempo Temperatura Precipitação Vento Pressão Humidade
    00:00 +12°C° 0 mm 3 m/s 751 mmHg 54%
    01:00 +12°C° 0 mm 3 m/s 751 mmHg 56%
    02:00 +12°C° 0 mm 3 m/s 750 mmHg 58%
    03:00 +12°C° 0 mm 4 m/s 750 mmHg 61%
    04:00 +11°C° 0 mm 4 m/s 750 mmHg 63%
    05:00 +11°C° 0 mm 4 m/s 749 mmHg 66%
    06:00 +12°C° 0 mm 4 m/s 749 mmHg 64%
    07:00 +14°C° 0 mm 5 m/s 749 mmHg 62%
    08:00 +15°C° 0 mm 5 m/s 749 mmHg 61%
    09:00 +15°C° 0 mm 5 m/s 748 mmHg 59%
    10:00 +16°C° 0 mm 5 m/s 748 mmHg 58%
    11:00 +16°C° 0 mm 6 m/s 748 mmHg 57%
    12:00 +17°C° 0.2 mm 6 m/s 747 mmHg 55%
    13:00 +19°C° 0.2 mm 6 m/s 747 mmHg 54%
    14:00 +20°C° 0.2 mm 6 m/s 747 mmHg 53%
    15:00 +21°C° 0 mm 5 m/s 746 mmHg 53%
    16:00 +22°C° 0 mm 4 m/s 746 mmHg 53%
    17:00 +22°C° 0 mm 4 m/s 745 mmHg 53%
    18:00 +21°C° 1 mm 4 m/s 745 mmHg 63%
    19:00 +19°C° 1 mm 3 m/s 745 mmHg 73%
    20:00 +17°C° 1 mm 3 m/s 745 mmHg 84%
    21:00 +16°C° 0.1 mm 3 m/s 745 mmHg 85%
    22:00 +16°C° 0.1 mm 3 m/s 745 mmHg 87%
    23:00 +16°C° 0.1 mm 3 m/s 744 mmHg 89%

    28 Abril, Domingo

    Tempo Temperatura Precipitação Vento Pressão Humidade
    00:00 +16°C° 0 mm 3 m/s 744 mmHg 90%
    01:00 +16°C° 0 mm 3 m/s 744 mmHg 90%
    02:00 +16°C° 0 mm 3 m/s 744 mmHg 91%
    03:00 +14°C° 0 mm 3 m/s 744 mmHg 92%
    04:00 +14°C° 0 mm 3 m/s 744 mmHg 93%
    05:00 +15°C° 0 mm 2 m/s 744 mmHg 94%
    06:00 +16°C° 0 mm 2 m/s 744 mmHg 89%
    07:00 +17°C° 0 mm 2 m/s 745 mmHg 84%
    08:00 +19°C° 0 mm 2 m/s 745 mmHg 80%
    09:00 +20°C° 0.7 mm 2 m/s 745 mmHg 73%
    10:00 +21°C° 0.7 mm 2 m/s 745 mmHg 67%
    11:00 +24°C° 0.7 mm 2 m/s 745 mmHg 61%
    12:00 +23°C° 1.5 mm 2 m/s 745 mmHg 62%
    13:00 +22°C° 1.5 mm 3 m/s 745 mmHg 63%
    14:00 +22°C° 1.5 mm 3 m/s 745 mmHg 64%
    15:00 +21°C° 0.4 mm 3 m/s 745 mmHg 65%
    16:00 +21°C° 0.4 mm 4 m/s 746 mmHg 66%
    17:00 +21°C° 0.4 mm 4 m/s 746 mmHg 67%
    18:00 +19°C° 0.1 mm 5 m/s 746 mmHg 71%
    19:00 +16°C° 0.1 mm 5 m/s 747 mmHg 76%
    20:00 +15°C° 0.1 mm 6 m/s 747 mmHg 80%
    21:00 +13°C° 0 mm 6 m/s 748 mmHg 80%
    22:00 +11°C° 0 mm 6 m/s 749 mmHg 80%
    23:00 +10°C° 0 mm 6 m/s 749 mmHg 80%

    29 Abril, Segunda-feira

    Tempo Temperatura Precipitação Vento Pressão Humidade
    00:00 +9°C° 0 mm 6 m/s 749 mmHg 79%
    01:00 +8°C° 0 mm 6 m/s 750 mmHg 79%
    02:00 +8°C° 0 mm 5 m/s 750 mmHg 78%
    03:00 +7°C° 0 mm 6 m/s 751 mmHg 75%
    04:00 +5°C° 0 mm 6 m/s 751 mmHg 73%
    05:00 +4°C° 0 mm 6 m/s 751 mmHg 70%
    06:00 +5°C° 0 mm 6 m/s 752 mmHg 67%
    07:00 +6°C° 0 mm 7 m/s 752 mmHg 64%
    08:00 +6°C° 0 mm 7 m/s 752 mmHg 61%
    09:00 +8°C° 0 mm 7 m/s 753 mmHg 58%
    10:00 +9°C° 0 mm 7 m/s 753 mmHg 54%
    11:00 +10°C° 0 mm 7 m/s 753 mmHg 50%
    12:00 +11°C° 0 mm 7 m/s 753 mmHg 48%
    13:00 +12°C° 0 mm 7 m/s 753 mmHg 46%
    14:00 +13°C° 0 mm 6 m/s 753 mmHg 45%
    15:00 +13°C° 0 mm 6 m/s 753 mmHg 46%
    16:00 +11°C° 0 mm 6 m/s 753 mmHg 48%
    17:00 +11°C° 0 mm 6 m/s 753 mmHg 49%
    18:00 +10°C° 0 mm 5 m/s 754 mmHg 52%
    19:00 +9°C° 0 mm 5 m/s 754 mmHg 55%
    20:00 +7°C° 0 mm 4 m/s 754 mmHg 59%
    21:00 +7°C° 0 mm 4 m/s 755 mmHg 58%
    22:00 +6°C° 0 mm 4 m/s 755 mmHg 58%
    23:00 +5°C° 0 mm 5 m/s 755 mmHg 58%
    Mostrar mais